Flag for Hungary Weather past 2 weeks in Miskolc, Hungary

Now
72 °F

Overcast.


Feels Like: 72 °F
Forecast: 61 / 82 °F
Wind: 2 mph from East

Location: Miskolc

Current Time: Jul 29, 2014 at 6:13:22 PM

Latest Report: Jul 29, 2014 at 5:00 PM


Visibility: 8 mi

Pressure: 29.83 "Hg

Humidity: 82%

Dew point: 67 °F

Location of MiskolcLocation

Historic Weather in Miskolc — Graph

°F

Miskolc temperature yesterday

Maximum temperature yesterday: 80 °F (at 5:00 PM)
Minimum temperature yesterday: 63 °F (at 6:00 AM)
Average temperature yesterday: 70 °F

Past Weeks' High & Low Weather Summary

 TemperatureHumidityPressure
High90 °F (Jul 21, 3:00 PM)92% (Jul 15, 6:00 AM)30.05 "Hg (Jul 15, 6:00 AM)
Low60 °F (Jul 15, 6:00 AM)36% (Jul 19, 5:00 PM)29.70 "Hg (Jul 21, 7:00 PM)
Average73 °F69%29.92 "Hg
* Reported Jul 14 5:00 PM — Jul 29 5:00 PM, Miskolc, Weather by CustomWeather, © 2014

Note: Actual official high and low records may vary slightly from our data, if they occured in-between our weather recording intervals... More about our weather records

Advertising

Miskolc weather history for previous 24 hours

 ConditionsComfort  
Time TempWeatherWind HumidityBarometerVisibility
5:00 PM
Jul 29
72 °FOvercast.2 mph82%29.83 "Hg7 mi
4:00 PM72 °FSprinkles. Overcast.2 mph81%29.83 "Hg2 mi
3:00 PM70 °FOvercast.1 mph84%29.85 "Hg7 mi
2:00 PM69 °FOvercast.No wind87%29.86 "Hg4 mi
1:00 PM67 °FOvercast.2 mph90%29.87 "Hg4 mi
12:00 PM69 °FOvercast.1 mph86%29.85 "Hg4 mi
11:00 AM70 °FOvercast.No wind80%29.86 "Hg5 mi
10:00 AM69 °FOvercast.1 mph82%29.85 "Hg5 mi
9:00 AM68 °FOvercast.1 mph90%29.85 "Hg7 mi
8:00 AM66 °FOvercast.1 mph91%29.85 "Hg7 mi
7:00 AM65 °FOvercast.No wind92%29.85 "Hg7 mi
6:00 AM65 °FOvercast.No wind92%29.85 "Hg12 mi
5:00 AM65 °FOvercast.1 mph92%29.84 "Hg9 mi
4:00 AM65 °FPassing clouds.1 mph92%29.85 "Hg9 mi
3:00 AM65 °FSprinkles. Overcast.1 mph92%29.86 "Hg9 mi
2:00 AM64 °FPassing clouds.No wind92%29.85 "Hg16 mi
1:00 AM65 °FPassing clouds.No wind92%29.86 "Hg16 mi
12:00 AM64 °FPassing clouds.1 mph91%29.86 "Hg16 mi
11:00 PM
Jul 28
65 °FPassing clouds.No wind91%29.87 "Hg12 mi
10:00 PM65 °FPassing clouds.1 mph92%29.88 "Hg12 mi
9:00 PM66 °FThunderstorms. Passing clouds.1 mph91%29.87 "Hg11 mi
8:00 PM65 °FThunderstorms. Partly sunny.1 mph91%29.87 "Hg12 mi
7:00 PM79 °FOvercast.1 mph57%29.84 "Hg19 mi
6:00 PM80 °FOvercast.1 mph55%29.84 "Hg19 mi
Weather by CustomWeather, © 2014

See weather overviewHow to use our weather pages